Location: Unspecified
(0.0000°N, 0.0000°E)
Time: 02:12:38
(UTC+00:00)

Tiros 1 despin weight - All Passes

Search period start: 28 August 2015 00:00
Search period end: 07 September 2015 00:00
Orbit: 597 x 647 km, 48.2° (Epoch: 25 August)

Date Brightness Start Highest point End Pass type
(mag) Time Alt. Az. Time Alt. Az. Time Alt. Az.
28 Aug - 05:30:13 10° SSW 05:34:25 36° SE 05:38:34 10° ENE visible
28 Aug - 07:13:03 10° W 07:15:59 16° NW 07:18:43 10° N daylight
28 Aug - 17:38:35 10° NNW 17:43:03 61° NE 17:47:37 10° SE daylight
28 Aug - 19:24:02 10° WSW 19:24:48 10° SW 19:25:16 10° SW visible
29 Aug - 05:47:38 10° SW 05:52:13 78° NW 05:56:42 10° NE daylight
29 Aug - 16:17:12 10° NNE 16:19:14 13° NE 16:21:32 10° E daylight
29 Aug - 17:56:29 10° NW 18:00:51 45° SW 18:05:16 10° SSE daylight
30 Aug - 04:24:56 10° S 04:28:26 22° SE 04:32:01 10° E visible
30 Aug - 06:06:07 10° WSW 06:10:01 27° NW 06:13:47 10° N daylight
30 Aug - 16:33:02 10° NNW 16:37:08 35° NE 16:41:21 10° ESE daylight
30 Aug - 18:15:41 10° W 18:18:45 17° SW 18:21:40 10° S daylight
31 Aug - 04:41:45 10° SSW 04:46:18 61° SE 04:50:46 10° NE visible
31 Aug - 16:50:25 10° NW 16:54:55 79° SW 16:59:31 10° SE daylight
01 Sep - 03:20:12 10° SSE 03:22:25 14° SE 03:24:50 10° E visible
01 Sep - 04:59:40 10° SW 05:04:05 45° NW 05:08:24 10° NNE visible
01 Sep - 15:27:49 10° N 15:31:11 21° NE 15:34:43 10° E daylight
01 Sep - 17:08:52 10° WNW 17:12:45 27° SW 17:16:37 10° S daylight
02 Sep - 03:36:07 10° SSW 03:40:22 36° SE 03:44:34 10° ENE visible
02 Sep - 05:18:55 10° W 05:21:57 17° NW 05:24:45 10° N visible
02 Sep - 15:44:35 10° NNW 15:49:00 60° NE 15:53:31 10° SE daylight
02 Sep - 17:30:21 10° SW 17:30:45 10° SW 17:30:50 10° SW daylight
03 Sep - 03:53:31 10° SW 03:58:10 78° NW 04:02:42 10° NE visible
03 Sep - 14:23:15 10° NNE 14:25:11 13° NE 14:27:21 10° ENE daylight
03 Sep - 16:02:28 10° NW 16:06:47 45° SW 16:11:09 10° SSE daylight
04 Sep - 02:30:48 10° S 02:34:22 22° SE 02:38:00 10° ENE night (unlit)
04 Sep - 04:12:00 10° WSW 04:15:57 27° NW 04:19:47 10° N visible
04 Sep - 14:39:02 10° NNW 14:43:04 35° NE 14:47:14 10° ESE daylight
04 Sep - 16:21:41 10° W 16:24:41 17° SW 16:27:32 10° S daylight
05 Sep - 02:47:37 10° SSW 02:52:13 61° SE 02:56:45 10° NE visible
05 Sep - 14:56:24 10° NW 15:00:51 79° SW 15:05:24 10° SE daylight
06 Sep - 01:26:03 10° SSE 01:28:19 14° SE 01:30:49 10° E night (unlit)
06 Sep - 03:05:32 10° SW 03:10:00 46° NW 03:14:22 10° NNE visible
06 Sep - 13:33:48 10° N 13:37:07 21° NE 13:40:35 10° E daylight
06 Sep - 15:14:50 10° WNW 15:18:40 27° SW 15:22:30 10° S daylight
